Location: Unspecified
(43.9000°N, 0.0000°E)
Time: 10:11:12

N. Korean satellite - Visible Passes

Search period start: 17 March 2018 00:00
Search period end: 27 March 2018 00:00
Orbit: 460 x 512 km, 97.2° (Epoch: 16 March)

Date Brightness Start Highest point End Pass type
(mag) Time Alt. Az. Time Alt. Az. Time Alt. Az.
17 Mar 10.1 18:56:51 10° WSW 18:58:48 14° W 19:00:47 10° WNW visible
18 Mar 9.4 18:31:43 10° SSW 18:34:48 26° W 18:37:58 10° NW visible
21 Mar 10.0 18:54:54 10° SW 18:57:00 15° W 18:59:09 10° NW visible
25 Mar 10.0 18:52:55 10° SW 18:55:10 15° W 18:57:26 10° NW visible
